Fort Knox, KY

11:23 PM EDT on July 23, 2017 (GMT -0400)
Godman Army Air Field

Weather History for KFTK - August, 2014

Change the Weather History Date:

Friday, August 1, 2014

  Actual Average Record
Temperature  
Mean Temperature 70 °F -  
Max Temperature 83 °F 84 °F 93 °F (2002)
Min Temperature 58 °F 64 °F 57 °F (1996)
Cooling Degree Days 6    
Growing Degree Days 20 (Base 50)    
Moisture  
Dew Point 60 °F    
Average Humidity 72    
Maximum Humidity 98    
Minimum Humidity 42    
Precipitation  
Precipitation 0.00 in - - ()
Sea Level Pressure  
Sea Level Pressure 30.07 in    
Wind  
Wind Speed 2 mph (North)    
Max Wind Speed 7 mph    
Max Gust Speed -    
Visibility 10 miles    
Events      
Averages and records for this station are not official NWS values.
T = Trace of Precipitation, MM = Missing Value Source: NWS Daily Summary

Daily Weather History Graph

Daily Weather History Graph

Search for Another Location

Airport or City:

Trip Planner

Search our weather history database for the weather conditions in past years. The results will help you decide how hot, cold, wet, or windy it might be!

Date:

Astronomy

Aug. 01, 2014 Rise Set
Actual Time 6:47 AM EDT 8:52 PM EDT
Civil Twilight 6:17 AM EDT 9:21 PM EDT
Nautical Twilight 5:42 AM EDT 9:57 PM EDT
Astronomical Twilight 5:03 AM EDT 10:35 PM EDT
Moon 12:04 PM EDT (8/1) 11:43 PM EDT (8/1)
Length of Visible Light 15h 03m
Length of Day
14h 05m
Waxing Crescent, 27% of the Moon is Illuminated
Aug 1
Waxing Crescent
Aug 3
First Quarter
Aug 10
Full
Aug 17
Last Quarter
Aug 25
New

Hourly Weather History & Observations

Time (EDT) Temp. Heat Index Dew Point Humidity Pressure Visibility Wind Dir Wind Speed Gust Speed Precip Events Conditions
12:58 AM 62.4 °F - 59.7 °F 91% 30.09 in 10.0 mi Calm Calm - N/A   Clear
1:58 AM 60.4 °F - 58.6 °F 94% 30.08 in 10.0 mi Calm Calm - N/A   Clear
2:58 AM 59.5 °F - 58.5 °F 96% 30.07 in 10.0 mi Calm Calm - N/A   Clear
3:58 AM 59.2 °F - 58.3 °F 97% 30.07 in 10.0 mi Calm Calm - N/A   Clear
4:58 AM 58.5 °F - 57.9 °F 98% 30.06 in 8.0 mi Calm Calm - N/A   Clear
5:58 AM 58.1 °F - 56.8 °F 96% 30.08 in 10.0 mi NNW 2.3 mph - N/A   Clear
6:58 AM 58.1 °F - 56.7 °F 95% 30.09 in 10.0 mi North 2.3 mph - N/A   Clear
7:58 AM 61.5 °F - 60.1 °F 95% 30.10 in 10.0 mi Calm Calm - N/A   Clear
8:58 AM 68.4 °F - 62.4 °F 81% 30.10 in 10.0 mi Calm Calm - N/A   Clear
9:58 AM 73.9 °F - 61.0 °F 64% 30.10 in 10.0 mi ESE 3.5 mph - N/A   Clear
10:58 AM 78.3 °F - 61.0 °F 55% 30.09 in 10.0 mi East 6.9 mph - N/A   Clear
11:58 AM 79.5 °F - 61.2 °F 53% 30.09 in 10.0 mi Variable 4.6 mph - N/A   Clear
12:58 PM 80.4 °F 81.1 °F 59.9 °F 49% 30.09 in 10.0 mi Variable 1.2 mph - N/A   Clear
1:37 PM 80.6 °F 81.5 °F 60.8 °F 51% 30.10 in 10.0 mi Variable 3.5 mph - N/A   Light Drizzle
1:44 PM 80.6 °F 81.8 °F 62.6 °F 54% 30.09 in 10.0 mi NW 5.8 mph - N/A   Mostly Cloudy
2:58 PM 82.8 °F 82.8 °F 59.7 °F 45% 30.06 in 10.0 mi Variable 3.5 mph - N/A   Clear
3:58 PM 83.1 °F 82.7 °F 58.1 °F 42% 30.04 in 10.0 mi Variable 2.3 mph - N/A   Scattered Clouds
4:58 PM 83.5 °F 83.1 °F 58.5 °F 42% 30.04 in 10.0 mi North 5.8 mph - N/A   Partly Cloudy
5:58 PM 82.9 °F 82.6 °F 57.4 °F 42% 30.03 in 10.0 mi North 4.6 mph - N/A   Clear
6:55 PM 82.4 °F 82.9 °F 60.8 °F 48% 30.03 in 10.0 mi NNE 3.5 mph - N/A   Clear
7:58 PM 77.7 °F - 65.7 °F 66% 30.03 in 10.0 mi NNW 3.5 mph - N/A   Clear
8:58 PM 70.2 °F - 64.4 °F 82% 30.04 in 10.0 mi NNW 2.3 mph - N/A   Clear
9:58 PM 66.7 °F - 62.2 °F 85% 30.05 in 10.0 mi NNW 2.3 mph - N/A   Clear
10:58 PM 67.3 °F - 59.7 °F 77% 30.05 in 10.0 mi Calm Calm - N/A   Clear
11:58 PM 63.5 °F - 61.7 °F 94% 30.06 in 9.0 mi North 1.2 mph - N/A   Clear